Regional Weather Roundup
Issued by NWS Portland, ME

Current Version | Previous Version | Text Only | Print | Product List | Glossary Off
Versions: 1 2 3 4 5 6 7 8 9 10 11 12 13 14 15 16 17 18 19 20 21 22 23 24 25 26 27 28 29 30 31 32 33 34 35 36 37 38 39 40 41 42 43 44 45 46 47 48 49 50

000
ASUS41 KGYX 310610
RWRGYX
WEATHER ROUNDUP FOR MAINE AND NEW HAMPSHIRE
NATIONAL WEATHER SERVICE GRAY ME
200 AM EDT TUE MAY 31 2016

MEZ002-005-006-010-012-015-018-020-021-024-026-027-029-310700-
MAINE

CITY           SKY/WX    TMP DP  RH WIND       PRES   REMARKS
PORTLAND       CLOUDY    66  64  93 SW5       29.82F
6HR MIN TEMP:  59; 6HR MAX TEMP:  67;

SANFORD        CLOUDY    68  63  83 SW3       29.84F
BAR HARBOR     FOG       57  57 100 S6        29.81F VSB 1/2
WISCASSET      MOCLDY    57  55  93 CALM      29.83S
6HR MIN TEMP:  57; 6HR MAX TEMP:  59;

ROCKLAND       FOG       58  58 100 SW3       29.82S VSB 1/2
FRYEBURG       CLOUDY    70  65  84 CALM      29.83S
6HR MIN TEMP:  68; 6HR MAX TEMP:  76;

LEWISTONAUBURN MOCLDY   N/A N/A N/A CALM      29.81F
AUGUSTA        MOCLDY    59  58  96 S3        29.81F
6HR MIN TEMP:  59; 6HR MAX TEMP:  64;

WATERVILLE     CLOUDY    59  58  96 SW5       29.78F FOG
BANGOR         FOG       61  58  90 S6        29.80S VSB 1/2
6HR MIN TEMP:  60; 6HR MAX TEMP:  65;

GREENVILLE       N/A     59  56  89 CALM      29.79S
6HR MIN TEMP:  59; 6HR MAX TEMP:  68;

MILLINOCKET    CLOUDY    60  59  96 E3        29.77F
6HR MIN TEMP:  59; 6HR MAX TEMP:  69;

HOULTON        CLOUDY    63  60  90 S8        29.73S
6HR MIN TEMP:  63; 6HR MAX TEMP:  68;

PRESQUE ISLE   CLEAR     65  61  87 W8        29.71F
6HR MIN TEMP:  64; 6HR MAX TEMP:  70;

FRENCHVILLE    PTCLDY    63  58  83 W10       29.70S
6HR MIN TEMP:  62; 6HR MAX TEMP:  71; 6HR PCP:  0.11;

CARIBOU        CLEAR     63  60  90 SW3       29.70F
6HR MIN TEMP:  61; 6HR MAX TEMP:  71; 6HR PCP:  0.04;

$$

NHZ002-005-008-009-011-012-014-310700-
NEW HAMPSHIRE

CITY           SKY/WX    TMP DP  RH WIND       PRES   REMARKS
ROCHESTER      MOCLDY    68  64  87 CALM      29.84S
6HR MIN TEMP:  67; 6HR MAX TEMP:  73;

NASHUA         MOCLDY    69  64  84 W3        29.88S
MANCHESTER     CLOUDY    71  64  78 SW6       29.86R
6HR MIN TEMP:  70; 6HR MAX TEMP:  76;

CONCORD        CLOUDY    68  65  90 CALM      29.86S
6HR MIN TEMP:  67; 6HR MAX TEMP:  76;

LACONIA        PTCLDY    70  65  84 SW7       29.86F
PLYMOUTH       FAIR      63  62  96 CALM      29.84S FOG
BERLIN         MOCLDY    58  57  97 MISG      29.85F
6HR MIN TEMP:  57; 6HR MAX TEMP:  68;

WHITEFIELD     CLOUDY    60  56  86 CALM      29.87S
6HR MIN TEMP:  60; 6HR MAX TEMP:  78;

JAFFREY        CLOUDY    65  61  87 S5        29.92S
6HR MIN TEMP:  65; 6HR MAX TEMP:  72;

KEENE          CLOUDY   N/A N/A N/A CALM      29.90S
LEBANON        MOCLDY    65  60  84 S5        29.87R
6HR MIN TEMP:  65; 6HR MAX TEMP:  78;

MT WASHINGTON  FOG       45  45 100 W55         N/A  VSB 1/16
6HR MIN TEMP:  45; 6HR MAX TEMP:  53;

$$

VTZ005-007-008-310700-
VERMONT

CITY           SKY/WX    TMP DP  RH WIND       PRES   REMARKS
ST JOHNSBURY     N/A     61  58  90 MISG      29.84F
MONTPELIER     FAIR      68  52  56 W7        29.91F
BURLINGTON     MOCLDY    68  54  60 W3        29.86S
$$

MAZ007-012-024-CTZ003-RIZ002-NYZ038-NYZ072-310700-
SOUTHERN NEW ENGLAND AND NY

CITY           SKY/WX    TMP DP  RH WIND       PRES   REMARKS
BOSTON         MOCLDY    68  66  93 SW9       29.87F
WORCESTER      CLOUDY    68  65  90 SW14      29.92
NANTUCKET      LGT RAIN  62  60  93 SW10      29.95S VSB 3/4
PROVIDENCE     CLOUDY    70  66  87 S6        29.92S
HARTFORD       CLOUDY    71  68  90 S7        29.89F
ALBANY         CLOUDY    66  63  90 CALM      29.92S
NEW YORK CITY  CLOUDY    74  72  93 SW7       29.92F
$$

ANZ081-ANZ082-ANZ150-NHZ014-MEZ023>029-310700-
COASTAL MARINE OBSERVATIONS

STATION/POSITION TIME  TEMP    WIND        PRES    WAVE
                       AIR SEA DIR/SP/G            HT/PER
                 (UTC) (F)     (DEG/KT/KT) (MB)    (FT/S)
MOUNT DESERT ROC 0600   53     220/ 11/ 12 1010.1R
MATINICUS ROCK   0600   55     220/ 19/ 19 1009.1F
ISLE OF SHOALS   0600   70     230/ 17/ 17 1010.3F
JEFFREYS LEDGE   0508      53                N/A     3/ 4
CASHES LEDGE BUO 0550   56 50  220/ 14/ 16 1010.2F   3/ 5
GEORGES BANK BUO 0550   58 53              1015.4F   3/ 5
$$

.............KEY..............
   WCI - WIND CHILL
   TC  - TEMPERATURE IN CELSIUS
   VSB - VISIBILITY IN MILES
   HX  - HEAT INDEX
   FAIR- INDICATES FEW OR NO CLOUDS BELOW 12,000 FT, WITH NO
         SIGNIFICANT WEATHER AND/OR OBSTRUCTIONS TO VISIBILITY.





USA.gov is the U.S. government's official web portal to all federal, state and local government web resources and services.